PHKOPHOG

Guest
Details From PHKO - Kona Intl At Keahole
To PHOG - Kahului
Flight Number -
Tags generated
Created
Modified
Stats Distance 73 nm / 135 km
Max Altitude 1,700 ft / 518 m
Waypoints 3
Social Downloads 2
Likes 0
Share VATSIM

Download

Looking for another format? Having issues loading an existing format? Contact us
Advertisement - Login to hide

Notes

Basic altitude profile: - Ascent Rate: 2000ft/min - Ascent Speed: 250kts - Cruise Altitude: 10000ft - Cruise Speed: 350kts - Descent Rate: 1500ft/min - Descent Speed: 250kts Options: - Use NATs: yes - Use PACOTS: yes - Use low airways: yes - Use high airways: no

Route

PHKO MYNAH PHOG

ID Type Via Altitude Latitude Longitude Leg Dist Tot Dist Heading (true) Name
O PHKO APT - 0 ft / 0 m 19.73934˚ -156.04576˚ - 0 nm - Kona Intl At Keahole
MYNAH FIX - 1,700 ft / 518 m 19.81189˚ -156.08586˚ 4 nm 4 nm 333° / 333° -
O PHOG APT - 0 ft / 0 m 20.89897˚ -156.43046˚ 68 nm 73 nm 344° / 343° Kahului

Altitude Profile

Advertisement - Login to hide

PHKO

Details ICAO PHKO (KOA)
Name Kona Intl At Keahole
Region USA (Hawaii)
Timezone Pacific/Honolulu (UTC-10.0)
Stats Elevation 45 ft / 14 m (AMSL)
Location 19.739343° -156.045756°
Runways 1
Magnetic Variation 9.436° E

METAR

PHKO 172253Z 24007KT 10SM BKN065 26/18 A2984

Decode

TAF

PHKO 172341Z 1800/1824 24008KT P6SM FEW030 BKN050 FM180600 10004KT P6SM FEW030 BKN050 FM182100 25008KT P6SM FEW030 BKN050

Decode

Departure Runways

ID Width Length Bearing (true) Bearing (mag) Surface Threshold Offset Overrun Length
17 150 ft / 46 m 11,461 ft / 3,493 m 184.77° 175.33° Asphalt 407 ft / 124 m 0 ft / 0 m
35 150 ft / 46 m 11,461 ft / 3,493 m 4.77° 355.33° Asphalt 0 ft / 0 m 404 ft / 123 m

PHOG

Details ICAO PHOG (OGG)
Name Kahului
Region USA (Hawaii)
Timezone Pacific/Honolulu (UTC-10.0)
Stats Elevation 54 ft / 16 m (AMSL)
Location 20.898975° -156.430460°
Runways 2
Magnetic Variation 9.529° E

METAR

PHOG 172254Z 36008KT 10SM FEW045 SCT050 26/19 A2986

Decode

TAF

PHOG 172341Z 1800/1824 36008KT P6SM FEW030 SCT045 FM180500 14004KT P6SM FEW030 SCT045 FM182100 01009KT P6SM FEW030 SCT045 AMD LTD TO VIS AND WIND 1809/1816

Decode

Destination Runways

ID Width Length Bearing (true) Bearing (mag) Surface Threshold Offset Overrun Length
02 150 ft / 46 m 7,013 ft / 2,138 m 34.81° 25.28° Asphalt 0 ft / 0 m 0 ft / 0 m
05 150 ft / 46 m 4,989 ft / 1,521 m 64.91° 55.38° Asphalt 0 ft / 0 m 0 ft / 0 m
20 150 ft / 46 m 7,013 ft / 2,138 m 214.81° 205.28° Asphalt 0 ft / 0 m 0 ft / 0 m
23 150 ft / 46 m 4,989 ft / 1,521 m 244.91° 235.38° Asphalt 0 ft / 0 m 0 ft / 0 m

Approach Navaids

Runway Type Ident Frequency Range Bearing (true) Bearing (mag) Slope Elevation
02 Localiser IOGG 110.10 MHz 18 nm / 33 km 34.81° 25.28° - 46 ft / 14 m (AMSL)
02 Glidescope IOGG 110.10 MHz 10 nm / 19 km 34.81° 25.28° 3.00° 46 ft / 14 m (AMSL)
02 DME IOGG 110.10 MHz 18 nm / 33 km - - - 46 ft / 14 m (AMSL)

Popular Alternatives